Lamar, CO

10:56 PM MST on November 17, 2019 (GMT -0700)
Lamar Municipal

Weather History for KLAA - September, 2019

Change the Weather History Date:

Saturday, September 21, 2019

  Actual Average Record
Temperature  
Mean Temperature 70 °F 64 °F  
Max Temperature 88 °F 81 °F 103 °F (1926)
Min Temperature 52 °F 48 °F 28 °F (1983)
Degree Days  
Heating Degree Days 0 4  
Month to date heating degree days 1 35  
Since 1 July heating degree days 1 40  
Cooling Degree Days 5 3  
Month to date cooling degree days 242 104  
Year to date cooling degree days 1344 1093  
Growing Degree Days 20 (Base 50)    
Moisture  
Dew Point 49 °F    
Average Humidity 49    
Maximum Humidity 77    
Minimum Humidity 21    
Precipitation  
Precipitation T in 0.05 in 1.44 in (1997)
Month to date precipitation 0.51 0.98  
Year to date precipitation 7.74 13.35  
Sea Level Pressure  
Sea Level Pressure 29.72 in    
Wind  
Wind Speed 10 mph (East)    
Max Wind Speed 36 mph    
Max Gust Speed 50 mph    
Visibility 10 miles    
Events      
T = Trace of Precipitation, MM = Missing Value Source: NWS Daily Summary

Daily Weather History Graph

Daily Weather History Graph

Search for Another Location

Airport or City:

Astronomy

Sep. 21, 2019 Rise Set
Actual Time 6:37 AM MDT 6:49 PM MDT
Civil Twilight 6:11 AM MDT 7:15 PM MDT
Nautical Twilight 5:40 AM MDT 7:46 PM MDT
Astronomical Twilight 5:09 AM MDT 8:17 PM MDT
Moon 11:35 PM MDT (9/21) 1:39 PM MDT (9/21)
Length of Visible Light 13h 04m
Length of Day
12h 12m
Waning Gibbous, 54% of the Moon is Illuminated
Sep 21
Waning Gibbous
Sep 21
Last Quarter
Sep 28
New
Oct 5
First Quarter
Oct 13
Full

Hourly Weather History & Observations

Time (MDT) Temp. Dew Point Humidity Pressure Visibility Wind Dir Wind Speed Gust Speed Precip Events Conditions
12:53 AM 73.0 °F 55.0 °F 53% 29.63 in 10.0 mi SSW 21.9 mph 29.9 mph N/A   Clear
1:53 AM 70.0 °F 54.0 °F 57% 29.67 in 10.0 mi WSW 11.5 mph - N/A   Clear
2:53 AM 70.0 °F 54.0 °F 57% 29.67 in 10.0 mi SW 17.3 mph - N/A   Clear
3:53 AM 66.9 °F 54.0 °F 63% 29.70 in 10.0 mi WSW 9.2 mph - N/A   Clear
4:53 AM 60.1 °F 50.0 °F 69% 29.74 in 10.0 mi NE 3.5 mph - N/A   Clear
5:53 AM 55.9 °F 48.0 °F 75% 29.78 in 10.0 mi NNW 3.5 mph - N/A   Clear
6:53 AM 54.0 °F 46.9 °F 77% 29.81 in 10.0 mi Calm Calm - N/A   Clear
7:53 AM 60.1 °F 48.0 °F 64% 29.83 in 10.0 mi Calm Calm - N/A   Clear
8:53 AM 70.0 °F 48.9 °F 47% 29.82 in 10.0 mi NE 6.9 mph - N/A   Clear
9:53 AM 73.9 °F 48.0 °F 40% 29.81 in 10.0 mi ENE 6.9 mph - N/A   Clear
10:53 AM 80.1 °F 46.0 °F 30% 29.79 in 10.0 mi East 9.2 mph - N/A   Clear
11:53 AM 82.9 °F 44.1 °F 25% 29.78 in 10.0 mi East 12.7 mph - N/A   Clear
12:53 PM 84.0 °F 43.0 °F 24% 29.75 in 10.0 mi Variable 6.9 mph 19.6 mph N/A   Clear
1:53 PM 86.0 °F 43.0 °F 22% 29.72 in 10.0 mi NE 12.7 mph - N/A   Clear
2:53 PM 87.1 °F 44.1 °F 22% 29.69 in 10.0 mi ENE 8.1 mph - N/A   Clear
3:53 PM 87.1 °F 45.0 °F 23% 29.67 in 10.0 mi NE 15.0 mph - N/A   Clear
4:53 PM 87.1 °F 46.9 °F 25% 29.65 in 10.0 mi NE 15.0 mph - N/A   Clear
5:53 PM 84.0 °F 50.0 °F 31% 29.66 in 10.0 mi ENE 9.2 mph - N/A   Clear
6:53 PM 80.1 °F 46.9 °F 31% 29.71 in 10.0 mi SSE 17.3 mph 26.5 mph N/A   Partly Cloudy
7:00 PM 79.0 °F 44.1 °F 29% 29.83 in 10.0 mi South 10.4 mph 26.5 mph N/A   Scattered Clouds
7:53 PM 72.0 °F 52.0 °F 49% 29.69 in 10.0 mi ESE 10.4 mph - 0.00 in   Clear
8:53 PM 69.1 °F 52.0 °F 54% 29.68 in 10.0 mi ESE 9.2 mph - N/A   Clear
9:53 PM 68.0 °F 59.0 °F 73% 29.67 in 10.0 mi East 8.1 mph - N/A   Clear
10:53 PM 72.0 °F 57.9 °F 61% 29.65 in 10.0 mi SW 10.4 mph - N/A   Clear
11:53 PM 70.0 °F 55.9 °F 61% 29.66 in 10.0 mi SW 15.0 mph - N/A   Clear